User: anonymous
Location: Unspecified
(0.0000°N, 0.0000°E)
Time: 18:30:05
(UTC+02:00)
Language:

Meteor PRIRODA - Orbit

View from above orbital plane
View from above orbital plane
View from above satellite
View from above satellite

Ground track
Ground track

The orbit data is extracted from the following two-line orbital elements,

1 12585U 81065A   14275.08763463  .00005450  00000-0  29592-3 0  9171
2 12585 097.3268 262.5562 0015000 250.9605 152.0153 15.14831147812170
Epoch (UTC): 02 October 2014 02:06:11
Eccentricity: 0.0015000
inclination: 97.3268°
perigee height: 511 km
apogee height: 532 km
right ascension of ascending node: 262.5562°
argument of perigee: 250.9605°
revolutions per day: 15.14831147
mean anomaly at epoch: 152.0153°
orbit number at epoch: 81217

The dashed part of the orbit path shows where the satellite is in the earth's shadow,  

DLR